Time,TemperatureF,DewpointF,PressureIn,WindDirection,WindDirectionDegrees,WindSpeedMPH,WindSpeedGustMPH,Humidity,HourlyPrecipIn,Conditions,Clouds,dailyrainin,SoftwareType,DateUTC
2015-06-30 00:24:00,81.0,74.0,30.00,WSW,242,8.0,12.0,80,-99.99,,,-99.99,,2015-06-30 05:24:00,
2015-06-30 00:34:00,81.0,74.0,30.00,WSW,242,8.0,12.0,80,-99.99,,,-99.99,,2015-06-30 05:34:00,
2015-06-30 00:44:00,81.0,73.0,30.00,SW,230,10.0,13.0,78,-99.99,,,-99.99,,2015-06-30 05:44:00,
2015-06-30 00:54:00,81.0,74.0,30.00,SW,233,9.0,13.0,80,-99.99,,,-99.99,,2015-06-30 05:54:00,
2015-06-30 01:04:00,81.0,74.0,30.00,SW,233,9.0,13.0,80,-99.99,,,-99.99,,2015-06-30 06:04:00,
2015-06-30 01:13:00,81.0,75.0,30.00,SW,234,8.0,14.0,82,-99.99,,,-99.99,,2015-06-30 06:13:00,
2015-06-30 01:23:00,81.0,76.0,30.00,WSW,238,8.0,13.0,84,-99.99,,,-99.99,,2015-06-30 06:23:00,
2015-06-30 01:34:00,81.0,76.0,30.00,WSW,238,8.0,13.0,84,-99.99,,,-99.99,,2015-06-30 06:34:00,
2015-06-30 01:44:00,81.0,76.0,30.00,West,263,8.0,13.0,86,-99.99,,,-99.99,,2015-06-30 06:44:00,
2015-06-30 02:04:00,81.0,77.0,30.00,WSW,250,9.0,14.0,87,-99.99,,,-99.99,,2015-06-30 07:04:00,
2015-06-30 02:13:00,81.0,77.0,30.01,West,265,11.0,15.0,88,-99.99,,,-99.99,,2015-06-30 07:13:00,
2015-06-30 02:24:00,81.0,77.0,30.01,SW,228,12.0,16.0,89,-99.99,,,-99.99,,2015-06-30 07:24:00,
2015-06-30 02:34:00,81.0,77.0,30.01,SW,228,12.0,16.0,89,-99.99,,,-99.99,,2015-06-30 07:34:00,
2015-06-30 02:44:00,81.0,77.0,30.00,SW,232,10.0,15.0,89,-99.99,,,-99.99,,2015-06-30 07:44:00,
2015-06-30 03:04:00,81.0,77.0,30.00,SW,234,12.0,18.0,88,-99.99,,,-99.99,,2015-06-30 08:04:00,
2015-06-30 03:13:00,81.0,77.0,30.00,SW,232,11.0,18.0,87,-99.99,,,-99.99,,2015-06-30 08:13:00,
2015-06-30 03:23:00,81.0,76.0,30.01,WSW,243,12.0,17.0,86,-99.99,,,-99.99,,2015-06-30 08:23:00,
2015-06-30 03:34:00,81.0,76.0,30.01,WSW,243,12.0,17.0,86,-99.99,,,-99.99,,2015-06-30 08:34:00,
2015-06-30 03:44:00,81.0,76.0,30.01,SW,236,13.0,17.0,86,-99.99,,,-99.99,,2015-06-30 08:44:00,
2015-06-30 03:53:00,81.0,76.0,30.00,WSW,242,9.0,16.0,86,-99.99,,,-99.99,,2015-06-30 08:53:00,
2015-06-30 04:04:00,81.0,76.0,30.00,WSW,242,9.0,16.0,86,-99.99,,,-99.99,,2015-06-30 09:04:00,
2015-06-30 04:13:00,81.0,77.0,30.00,West,259,9.0,16.0,87,-99.99,,,-99.99,,2015-06-30 09:13:00,
2015-06-30 04:24:00,81.0,77.0,30.00,West,259,10.0,15.0,88,-99.99,,,-99.99,,2015-06-30 09:24:00,
2015-06-30 04:34:00,81.0,77.0,30.00,West,259,10.0,15.0,88,-99.99,,,-99.99,,2015-06-30 09:34:00,
2015-06-30 04:44:00,81.0,77.0,30.00,WSW,242,9.0,15.0,88,-99.99,,,-99.99,,2015-06-30 09:44:00,
2015-06-30 04:54:00,81.0,77.0,30.00,SW,215,10.0,15.0,88,-99.99,,,-99.99,,2015-06-30 09:54:00,
2015-06-30 05:03:00,81.0,77.0,30.00,SW,215,10.0,15.0,88,-99.99,,,-99.99,,2015-06-30 10:03:00,
2015-06-30 05:13:00,81.0,77.0,30.00,West,269,10.0,16.0,89,-99.99,,,-99.99,,2015-06-30 10:13:00,
2015-06-30 05:24:00,81.0,77.0,30.01,West,264,10.0,17.0,89,-99.99,,,-99.99,,2015-06-30 10:24:00,
2015-06-30 05:34:00,81.0,77.0,30.01,West,264,10.0,17.0,89,-99.99,,,-99.99,,2015-06-30 10:34:00,